period_start,C,m1,H,J0,J1,J2,J3,J4,J5,JA,JB,JC,JD,JJ,JK,JN,#
2014-08-03 00:00:03,0.00,9.20,0.00,26.00,30.55,32.82,9.62,56.20,1006.36,2020.99,1181.00,1715.99,1760.00,500.24,486.90,28.89,0000 0000 0000 0000 000000
2014-08-03 00:05:04,0.04,9.20,0.00,25.98,30.55,32.83,9.55,56.33,1006.36,2020.99,1180.99,1715.67,1760.00,499.89,486.72,28.93,0000 0000 0000 0000 000000
2014-08-03 00:10:06,0.06,9.20,0.00,25.99,30.54,32.83,9.52,56.16,1006.30,2021.00,1180.85,1715.09,1759.87,499.64,486.28,28.97,0000 0000 0000 0000 000000
2014-08-03 00:15:07,0.11,9.21,0.00,25.99,30.54,32.82,9.53,56.19,1006.32,2021.00,1180.25,1715.00,1759.15,500.05,486.82,29.01,0000 0000 0000 0000 000000
2014-08-03 00:20:08,0.02,9.21,0.00,26.00,30.54,32.82,9.59,56.38,1006.27,2021.00,1180.03,1714.94,1759.00,500.21,486.79,29.05,0000 0000 0000 0000 000000
2014-08-03 00:25:09,0.06,9.21,0.00,26.00,30.54,32.84,9.60,56.17,1006.12,2021.00,1180.00,1714.47,1758.92,500.09,486.78,29.10,0000 0000 0000 0000 000000
2014-08-03 00:30:11,0.06,9.21,0.00,26.02,30.54,32.83,9.48,56.23,1005.90,2021.00,1179.95,1714.03,1758.27,499.79,486.46,29.14,0000 0000 0000 0000 000000
2014-08-03 00:35:12,0.06,9.21,0.00,26.01,30.54,32.82,9.57,56.49,1005.89,2021.00,1179.49,1713.99,1758.00,500.11,486.41,29.18,0000 0000 0000 0000 000000
2014-08-03 00:40:13,0.08,9.22,0.00,26.00,30.54,32.82,9.55,56.41,1005.89,2021.00,1179.02,1713.66,1757.93,500.01,486.53,29.22,0000 0000 0000 0000 000000
2014-08-03 00:45:15,0.08,9.22,0.00,26.02,30.54,32.81,9.54,56.24,1005.88,2021.00,1178.99,1713.04,1757.22,500.09,486.58,29.26,0000 0000 0000 0000 000000
2014-08-03 00:50:16,0.02,9.22,0.00,26.03,30.54,32.82,9.55,56.19,1005.88,2021.00,1178.85,1713.00,1757.00,500.03,486.47,29.31,0000 0000 0000 0000 000000
2014-08-03 00:55:17,0.12,9.23,0.00,26.02,30.54,32.83,9.57,56.22,1005.87,2021.00,1178.19,1712.71,1756.91,500.14,486.56,29.35,0000 0000 0000 0000 000000
2014-08-03 01:00:18,0.09,9.23,0.00,26.03,30.54,32.83,9.55,56.31,1005.87,2021.00,1178.00,1712.06,1756.16,499.88,486.33,29.39,0000 0000 0000 0000 000000
2014-08-03 01:05:19,0.01,9.23,0.00,26.04,30.55,32.83,9.55,56.23,1005.86,2021.00,1177.92,1712.00,1756.00,500.22,486.76,29.43,0000 0000 0000 0000 000000
2014-08-03 01:10:21,0.08,9.23,0.00,26.07,30.55,32.83,9.57,56.38,1005.82,2021.00,1177.44,1711.84,1755.90,499.59,485.97,29.47,0000 0000 0000 0000 000000
2014-08-03 01:15:22,0.12,9.24,0.00,26.07,30.55,32.82,9.57,56.31,1005.80,2021.00,1177.07,1711.16,1755.19,500.14,486.57,29.51,0000 0000 0000 0000 000000
2014-08-03 01:20:23,0.01,9.24,0.00,26.07,30.55,32.83,9.55,56.34,1005.79,2021.00,1177.00,1711.01,1755.01,500.19,486.56,29.56,0000 0000 0000 0000 000000
2014-08-03 01:25:24,0.00,9.24,0.00,26.06,30.55,32.84,9.54,56.25,1005.57,2021.00,1176.99,1710.97,1754.98,499.89,486.11,29.60,0000 0000 0000 0000 000000
2014-08-03 01:30:25,0.07,9.24,0.00,26.08,30.55,32.83,9.55,56.35,1005.50,2021.00,1176.86,1710.72,1754.68,499.81,486.20,29.64,0000 0000 0000 0000 000000
2014-08-03 01:35:27,0.12,9.25,0.00,26.04,30.55,32.83,9.54,56.15,1005.42,2021.00,1176.47,1710.07,1754.06,499.64,486.06,29.68,0000 0000 0000 0000 000000
2014-08-03 01:40:28,0.02,9.25,0.00,26.00,30.55,32.85,9.55,56.23,1005.42,2021.00,1176.04,1710.00,1754.00,499.33,485.63,29.72,0000 0000 0000 0000 000000
2014-08-03 01:45:29,0.00,9.25,0.00,25.93,30.55,32.86,9.59,56.17,1005.40,2021.00,1176.00,1709.99,1753.98,499.90,486.39,29.77,0000 0000 0000 0000 000000
2014-08-03 01:50:30,0.03,9.25,0.00,25.90,30.55,32.86,9.50,56.15,1005.39,2021.00,1175.99,1709.85,1753.83,499.99,486.52,29.81,0000 0000 0000 0000 000000
2014-08-03 01:55:31,0.16,9.26,0.00,25.89,30.55,32.83,9.53,56.22,1005.39,2021.00,1175.63,1709.12,1753.10,499.64,486.14,29.85,0000 0000 0000 0000 000000
2014-08-03 02:00:32,0.04,9.26,0.00,25.89,30.55,32.83,9.52,56.38,1005.39,2021.00,1175.11,1709.00,1753.00,499.81,486.30,29.89,0000 0000 0000 0000 000000
2014-08-03 02:05:33,0.00,9.26,0.00,25.92,30.53,32.81,9.56,56.32,1005.39,2021.00,1175.01,1709.00,1752.99,499.92,486.33,29.93,0000 0000 0000 0000 000000
2014-08-03 02:10:34,0.04,9.26,0.00,25.92,30.52,32.80,9.54,56.40,1005.38,2021.00,1174.99,1708.78,1752.64,499.86,486.29,29.97,0000 0000 0000 0000 000000
2014-08-03 02:15:36,0.09,9.27,0.00,25.91,30.52,32.78,9.55,56.23,1005.34,2021.00,1174.83,1708.09,1752.05,500.05,486.64,30.02,0000 0000 0000 0000 000000
2014-08-03 02:20:37,0.08,9.27,0.00,25.94,30.52,32.77,9.59,56.22,1005.19,2021.02,1174.13,1708.00,1752.00,499.86,486.14,30.06,0000 0000 0000 0000 000000
2014-08-03 02:25:38,0.01,9.27,0.00,25.95,30.51,32.77,9.53,56.25,1005.04,2021.05,1174.02,1707.96,1751.96,499.67,485.89,30.10,0000 0000 0000 0000 000000
2014-08-03 02:30:39,0.10,9.28,0.00,25.95,30.50,32.76,9.52,56.19,1004.93,2021.04,1173.99,1707.47,1751.30,500.11,486.21,30.14,0000 0000 0000 0000 000000
2014-08-03 02:35:40,0.02,9.28,0.00,25.97,30.50,32.75,9.54,56.26,1004.91,2021.02,1173.95,1707.04,1751.02,500.13,486.11,30.18,0000 0000 0000 0000 000000
2014-08-03 02:40:42,0.08,9.28,0.00,25.98,30.50,32.75,9.51,56.17,1004.90,2021.03,1173.47,1706.98,1750.99,500.31,486.37,30.23,0000 0000 0000 0000 000000
2014-08-03 02:45:43,0.08,9.28,0.00,26.01,30.50,32.76,9.61,56.44,1004.90,2021.03,1173.07,1706.73,1750.51,500.46,486.47,30.27,0000 0000 0000 0000 000000
2014-08-03 02:50:44,0.06,9.29,0.00,26.01,30.50,32.76,9.52,56.27,1004.90,2021.00,1173.00,1706.09,1750.02,499.68,485.84,30.31,0000 0000 0000 0000 000000
2014-08-03 02:55:45,0.01,9.29,0.00,26.00,30.50,32.74,9.64,56.42,1004.90,2021.03,1172.99,1706.00,1750.00,500.48,486.45,30.35,0000 0000 0000 0000 000000
2014-08-03 03:00:47,0.01,9.29,0.00,26.01,30.50,32.75,9.55,56.23,1004.90,2021.02,1172.92,1705.98,1749.92,499.98,486.01,30.39,0000 0000 0000 0000 000000
2014-08-03 03:05:48,0.16,9.29,0.00,26.02,30.50,32.76,9.52,56.32,1004.90,2021.01,1172.49,1705.47,1749.22,499.83,485.84,30.43,0000 0000 0000 0000 000000
2014-08-03 03:10:49,0.06,9.30,0.00,26.03,30.50,32.78,9.53,56.42,1004.90,2021.03,1172.05,1705.04,1749.00,499.63,485.76,30.48,0000 0000 0000 0000 000000
2014-08-03 03:15:50,0.01,9.30,0.00,26.04,30.51,32.77,9.54,56.23,1004.89,2021.03,1172.00,1704.98,1748.94,499.74,485.74,30.52,0000 0000 0000 0000 000000
2014-08-03 03:20:52,0.10,9.30,0.00,26.07,30.52,32.78,9.50,56.14,1004.88,2021.04,1171.95,1704.55,1748.27,499.97,485.93,30.56,0000 0000 0000 0000 000000
2014-08-03 03:25:53,0.11,9.31,0.00,26.07,30.52,32.79,9.56,56.18,1004.87,2021.03,1171.35,1704.03,1748.00,499.94,485.89,30.60,0000 0000 0000 0000 000000
2014-08-03 03:30:54,0.03,9.31,0.00,26.09,30.52,32.79,9.49,56.23,1004.85,2021.04,1171.02,1703.96,1747.84,499.50,485.34,30.64,0000 0000 0000 0000 000000
2014-08-03 03:35:55,0.11,9.31,0.00,26.10,30.52,32.79,9.51,56.13,1004.66,2021.02,1170.98,1703.30,1747.10,499.86,485.60,30.69,0000 0000 0000 0000 000000
2014-08-03 03:40:56,0.05,9.31,0.00,26.10,30.53,32.79,9.53,56.10,1004.58,2021.02,1170.69,1703.00,1746.98,500.01,485.61,30.73,0000 0000 0000 0000 000000
2014-08-03 03:45:58,0.11,9.32,0.00,26.11,30.55,32.80,9.46,56.04,1004.57,2021.02,1170.08,1702.82,1746.43,499.77,485.50,30.77,0000 0000 0000 0000 000000
2014-08-03 03:50:59,0.07,9.32,0.00,26.11,30.55,32.83,9.60,56.13,1004.56,2021.00,1169.97,1702.07,1746.01,500.05,485.74,30.81,0000 0000 0000 0000 000000
2014-08-03 03:56:01,0.09,9.33,0.00,26.03,30.55,32.84,9.61,56.11,1004.65,2021.01,1169.53,1701.98,1745.74,500.22,486.17,30.85,0000 0000 0000 0000 000000
2014-08-03 04:01:02,0.13,9.33,0.00,26.01,30.55,32.83,9.54,56.15,1004.58,2021.02,1169.04,1701.41,1745.05,500.32,486.22,30.90,0000 0000 0000 0000 000000
2014-08-03 04:06:04,0.02,9.33,0.00,26.00,30.55,32.83,9.45,56.06,1004.60,2021.03,1168.98,1701.00,1744.96,499.09,485.02,30.94,0000 0000 0000 0000 000000
2014-08-03 04:11:05,0.16,9.34,0.00,26.01,30.55,32.83,9.51,56.17,1004.56,2021.08,1168.35,1700.77,1744.30,500.07,485.86,30.98,0000 0000 0000 0000 000000
2014-08-03 04:16:06,0.06,9.34,0.00,26.02,30.55,32.82,9.54,56.22,1004.64,2021.03,1168.02,1700.09,1743.99,499.61,485.31,31.02,0000 0000 0000 0000 000000
2014-08-03 04:21:07,0.06,9.35,0.00,26.04,30.55,32.81,9.55,56.19,1004.79,2021.02,1167.94,1699.90,1743.38,499.46,485.43,31.06,0000 0000 0000 0000 000000
2014-08-03 04:26:08,0.16,9.35,0.00,26.07,30.55,32.81,9.52,56.02,1004.62,2021.02,1167.28,1699.21,1742.99,499.79,485.60,31.10,0000 0000 0000 0000 000000
2014-08-03 04:31:09,0.04,9.35,0.00,26.10,30.55,32.80,9.54,56.32,1004.44,2021.01,1167.00,1698.97,1742.60,499.83,485.52,31.15,0000 0000 0000 0000 000000
2014-08-03 04:36:10,0.10,9.36,0.00,26.13,30.57,32.81,9.54,56.32,1004.42,2021.01,1166.95,1698.33,1742.02,500.38,485.92,31.19,0000 0000 0000 0000 000000
2014-08-03 04:41:11,0.09,9.36,0.00,26.16,30.57,32.81,9.44,56.11,1004.41,2021.02,1166.42,1698.00,1741.73,499.72,485.38,31.23,0000 0000 0000 0000 000000
2014-08-03 04:46:12,0.11,9.37,0.00,26.19,30.57,32.81,9.53,56.14,1004.42,2021.01,1166.02,1697.48,1741.03,499.82,485.25,31.27,0000 0000 0000 0000 000000
2014-08-03 04:51:14,0.04,9.37,0.00,26.22,30.60,32.84,9.53,56.16,1004.41,2021.02,1165.98,1697.02,1740.74,500.07,485.62,31.31,0000 0000 0000 0000 000000
2014-08-03 04:56:15,0.13,9.37,0.00,26.24,30.60,32.83,9.49,56.15,1004.41,2021.00,1165.66,1696.67,1740.04,500.07,485.49,31.36,0000 0000 0000 0000 000000
2014-08-03 05:01:16,0.10,9.38,0.00,26.27,30.61,32.86,9.60,56.14,1004.32,2021.00,1165.05,1696.02,1739.75,500.51,485.64,31.40,0000 0000 0000 0000 000000
2014-08-03 05:06:17,0.18,9.38,0.00,26.26,30.62,32.86,9.52,56.05,1004.12,2021.00,1164.66,1695.32,1738.96,499.66,484.88,31.44,0000 0000 0000 0000 000000
2014-08-03 05:11:18,0.12,9.39,0.00,26.25,30.63,32.89,9.48,56.17,1004.38,2021.00,1164.03,1694.77,1738.13,500.37,485.67,31.48,0000 0000 0000 0000 000000
2014-08-03 05:16:19,0.15,9.40,0.00,26.20,30.65,32.91,9.55,56.22,1004.31,2021.00,1163.56,1694.04,1737.66,500.31,485.80,31.52,0000 0000 0000 0000 000000
2014-08-03 05:21:21,0.11,9.40,0.00,26.17,30.65,32.93,9.52,56.28,1004.20,2020.99,1163.02,1693.56,1737.02,500.29,485.69,31.57,0000 0000 0000 0000 000000
2014-08-03 05:26:22,0.08,9.41,0.00,26.19,30.66,32.93,9.52,56.31,1004.11,2020.99,1162.88,1692.99,1736.38,499.69,485.08,31.61,0000 0000 0000 0000 000000
2014-08-03 05:31:23,0.18,9.41,0.00,26.22,30.67,32.94,9.50,56.16,1004.22,2020.99,1162.13,1692.17,1735.90,499.79,485.09,31.65,0000 0000 0000 0000 000000
2014-08-03 05:36:24,0.11,9.42,0.00,26.23,30.67,32.92,9.48,56.17,1004.20,2020.99,1161.86,1691.75,1735.08,500.27,485.56,31.69,0000 0000 0000 0000 000000
2014-08-03 05:41:25,0.17,9.43,0.00,26.27,30.67,32.93,9.54,56.08,1004.23,2020.99,1161.08,1691.01,1734.38,500.18,485.42,31.73,0000 0000 0000 0000 000000
2014-08-03 05:46:26,0.14,9.43,0.00,26.30,30.70,32.93,9.53,56.13,1004.05,2020.98,1160.77,1690.23,1733.82,499.98,485.14,31.77,0000 0000 0000 0000 000000
2014-08-03 05:51:27,0.15,9.44,0.00,26.32,30.70,32.94,9.50,56.18,1003.95,2020.97,1160.03,1689.67,1733.04,500.27,485.26,31.82,0000 0000 0000 0000 000000
2014-08-03 05:56:28,0.15,9.44,0.00,26.37,30.70,32.94,9.52,56.04,1003.93,2020.95,1159.54,1689.00,1732.28,499.82,484.58,31.86,0000 0000 0000 0000 000000
2014-08-03 06:01:29,0.14,9.45,0.00,26.42,30.72,32.93,9.55,56.22,1003.93,2020.94,1158.96,1688.22,1731.58,500.16,485.00,31.90,0000 0000 0000 0000 000000
2014-08-03 06:06:30,0.18,9.46,0.00,26.46,30.72,32.95,9.52,56.01,1003.93,2020.89,1158.13,1687.59,1730.87,500.06,484.74,31.94,0000 0000 0000 0000 000000
2014-08-03 06:11:31,0.12,9.46,0.00,26.48,30.74,32.96,9.53,56.17,1003.93,2020.83,1157.60,1686.92,1730.06,499.99,484.88,31.98,0000 0000 0000 0000 000000
2014-08-03 06:16:33,0.15,9.47,0.00,26.51,30.75,32.97,9.48,56.02,1003.95,2020.71,1156.97,1686.11,1729.28,499.67,484.40,32.03,0000 0000 0000 0000 000000
2014-08-03 06:21:34,0.16,9.48,0.00,26.53,30.76,32.99,9.48,56.17,1003.96,2020.40,1156.15,1685.31,1728.54,499.92,484.63,32.07,0000 0000 0000 0000 000000
2014-08-03 06:26:35,0.14,9.48,0.00,26.55,30.77,32.99,9.50,56.05,1003.96,2020.22,1155.64,1684.62,1727.79,499.93,484.67,32.11,0000 0000 0000 0000 000000
2014-08-03 06:31:37,0.11,9.49,0.00,26.57,30.80,33.02,9.46,56.04,1003.95,2020.12,1154.91,1683.84,1726.98,499.65,484.38,32.15,0000 0000 0000 0000 000000
2014-08-03 06:36:38,0.20,9.50,0.00,26.60,30.81,33.04,9.47,56.10,1003.93,2020.04,1154.04,1682.96,1726.11,499.20,483.97,32.19,0000 0000 0000 0000 000000
2014-08-03 06:41:38,0.23,9.51,0.00,26.63,30.82,33.06,9.49,56.03,1003.94,2020.03,1153.19,1682.08,1725.22,499.68,484.04,32.23,0000 0000 0000 0000 000000
2014-08-03 06:46:40,0.22,9.51,0.00,26.64,30.84,33.08,9.54,56.14,1004.01,2020.01,1152.45,1681.24,1724.35,500.14,484.66,32.28,0000 0000 0000 0000 000000
2014-08-03 06:51:41,0.21,9.52,0.00,26.66,30.86,33.10,9.50,56.06,1004.03,2020.00,1151.61,1680.41,1723.48,500.01,484.73,32.32,0000 0000 0000 0000 000000
2014-08-03 06:56:42,0.16,9.53,0.00,26.68,30.87,33.12,9.50,56.18,1004.16,2020.00,1150.87,1679.58,1722.54,499.59,484.19,32.36,0000 0000 0000 0000 000000
2014-08-03 07:01:44,0.25,9.54,0.00,26.72,30.90,33.14,9.51,56.23,1004.25,2020.00,1149.88,1678.65,1721.59,499.81,484.38,32.40,0000 0000 0000 0000 000000
2014-08-03 07:06:45,0.21,9.55,0.00,26.73,30.91,33.15,9.52,56.17,1004.16,2019.99,1148.94,1677.68,1720.58,500.19,484.78,32.44,0000 0000 0000 0000 000000
2014-08-03 07:11:46,0.25,9.56,0.00,26.77,30.93,33.17,9.50,56.17,1004.27,2019.98,1147.98,1676.69,1719.58,499.76,484.42,32.48,0000 0000 0000 0000 000000
2014-08-03 07:16:47,0.25,9.57,0.00,26.77,30.95,33.19,9.50,56.16,1004.23,2019.96,1146.93,1675.67,1718.46,500.11,484.67,32.53,0000 0000 0000 0000 000000
2014-08-03 07:21:48,0.27,9.58,0.00,26.79,30.97,33.22,9.51,56.09,1004.34,2019.89,1145.82,1674.58,1717.31,500.17,484.51,32.57,0000 0000 0000 0000 000000
2014-08-03 07:26:49,0.21,9.59,0.00,26.82,30.99,33.23,9.49,56.14,1004.32,2019.71,1144.75,1673.58,1716.29,499.94,484.46,32.61,0000 0000 0000 0000 000000
2014-08-03 07:31:50,0.21,9.60,0.00,26.84,31.01,33.25,9.47,56.21,1004.35,2019.40,1143.68,1672.58,1715.17,499.82,484.20,32.65,0000 0000 0000 0000 000000
2014-08-03 07:36:51,0.23,9.61,0.00,26.85,31.03,33.28,9.53,56.28,1004.37,2019.13,1142.49,1671.56,1714.03,499.86,484.29,32.69,0000 0000 0000 0000 000000
2014-08-03 07:41:52,0.26,9.62,0.00,26.88,31.05,33.30,9.55,56.26,1004.40,2019.05,1141.32,1670.52,1712.87,500.17,484.49,32.73,0000 0000 0000 0000 000000
2014-08-03 07:46:53,0.33,9.63,0.00,26.90,31.07,33.32,9.54,56.17,1004.40,2019.01,1139.87,1669.30,1711.61,500.17,484.51,32.78,0000 0000 0000 0000 000000
2014-08-03 07:51:55,0.39,9.65,0.00,26.90,31.09,33.34,9.46,56.27,1004.41,2019.00,1138.03,1667.91,1710.15,499.88,484.09,32.82,0000 0000 0000 0000 000000
2014-08-03 07:56:56,0.38,9.66,0.00,26.92,31.11,33.36,9.48,56.17,1004.39,2019.00,1136.42,1666.45,1708.62,499.36,483.83,32.86,0000 0000 0000 0000 000000
2014-08-03 08:01:57,0.43,9.68,0.00,26.93,31.13,33.37,9.46,56.17,1004.40,2019.00,1134.79,1664.72,1706.87,499.89,484.23,32.90,0000 0000 0000 0000 000000
2014-08-03 08:06:58,0.39,9.70,0.00,26.95,31.16,33.39,9.50,56.31,1004.35,2019.00,1133.12,1663.16,1705.15,500.12,484.27,32.94,0000 0000 0000 0000 000000
2014-08-03 08:11:59,0.46,9.72,0.00,26.98,31.17,33.43,9.52,56.27,1004.34,2018.98,1131.30,1661.45,1703.29,499.99,484.03,32.98,0000 0000 0000 0000 000000
2014-08-03 08:17:01,0.47,9.74,0.00,27.01,31.20,33.44,9.54,56.41,1004.41,2018.95,1129.41,1659.55,1701.25,500.10,484.23,33.03,0000 0000 0000 0000 000000
2014-08-03 08:22:02,0.40,9.75,0.00,27.06,31.22,33.45,9.49,56.39,1004.41,2018.87,1127.71,1657.88,1699.55,500.07,484.06,33.07,0000 0000 0000 0000 000000
2014-08-03 08:27:03,0.29,9.77,0.00,27.07,31.25,33.48,9.54,56.42,1004.43,2018.52,1126.12,1656.49,1698.00,500.24,484.32,33.11,0000 0000 0000 0000 000000
2014-08-03 08:32:04,0.40,9.78,0.00,27.08,31.26,33.50,9.49,56.27,1004.57,2018.20,1124.37,1654.87,1696.32,500.16,484.28,33.15,0000 0000 0000 0000 000000
2014-08-03 08:37:05,0.44,9.80,0.00,27.09,31.29,33.53,9.51,56.36,1004.50,2018.10,1122.39,1653.12,1694.43,499.94,483.97,33.19,0000 0000 0000 0000 000000
2014-08-03 08:42:06,0.44,9.82,0.00,27.10,31.31,33.54,9.49,56.44,1004.53,2018.03,1120.52,1651.44,1692.62,500.15,484.47,33.23,0000 0000 0000 0000 000000
2014-08-03 08:47:07,0.48,9.84,0.00,27.12,31.34,33.56,9.49,56.52,1004.66,2018.00,1118.59,1649.67,1690.80,499.87,483.96,33.28,0000 0000 0000 0000 000000
2014-08-03 08:52:08,0.39,9.86,0.00,27.12,31.36,33.58,9.48,56.42,1004.88,2018.00,1116.86,1648.11,1689.11,500.08,484.10,33.32,0000 0000 0000 0000 000000
2014-08-03 08:57:10,0.45,9.88,0.00,27.15,31.37,33.61,9.47,56.39,1004.89,2018.00,1115.26,1646.36,1687.28,499.87,484.21,33.36,0000 0000 0000 0000 000000
2014-08-03 09:02:11,0.46,9.90,0.00,27.17,31.40,33.63,9.49,56.54,1004.89,2017.99,1113.52,1644.46,1685.29,500.02,484.16,33.40,0000 0000 0000 0000 000000
2014-08-03 09:07:12,0.46,9.91,0.00,27.20,31.41,33.65,9.52,56.57,1004.83,2017.97,1111.82,1642.68,1683.47,499.84,483.91,33.44,0000 0000 0000 0000 000000
2014-08-03 09:12:13,0.40,9.93,0.00,27.21,31.44,33.67,9.54,56.58,1004.72,2017.84,1110.01,1640.96,1681.68,500.28,484.28,33.49,0000 0000 0000 0000 000000
2014-08-03 09:17:14,0.33,9.95,0.00,27.22,31.46,33.70,9.50,56.38,1004.69,2017.44,1108.26,1639.38,1679.95,500.23,484.21,33.53,0000 0000 0000 0000 000000
2014-08-03 09:22:16,0.42,9.96,0.00,27.25,31.47,33.70,9.49,56.49,1004.50,2017.11,1106.60,1637.76,1678.16,499.91,483.77,33.57,0000 0000 0000 0000 000000
2014-08-03 09:27:17,0.40,9.98,0.00,27.25,31.50,33.73,9.47,56.45,1004.59,2017.04,1104.94,1636.07,1676.38,500.20,484.09,33.61,0000 0000 0000 0000 000000
2014-08-03 09:32:18,0.42,10.00,0.00,27.27,31.52,33.75,9.51,56.60,1004.67,2017.01,1103.35,1634.45,1674.65,499.67,483.56,33.65,0000 0000 0000 0000 000000
2014-08-03 09:37:19,0.45,10.02,0.00,27.30,31.54,33.77,9.53,56.56,1004.88,2017.00,1101.73,1632.74,1672.88,500.38,484.38,33.69,0000 0000 0000 0000 000000
2014-08-03 09:42:20,0.40,10.04,0.00,27.30,31.56,33.78,9.49,56.42,1004.90,2017.00,1100.19,1631.05,1671.13,500.28,484.23,33.74,0000 0000 0000 0000 000000
2014-08-03 09:47:22,0.42,10.05,0.00,27.32,31.57,33.79,9.54,56.55,1004.90,2017.00,1098.68,1629.37,1669.41,500.42,484.25,33.78,0000 0000 0000 0000 000000
2014-08-03 09:52:23,0.40,10.07,0.00,27.34,31.60,33.81,9.48,56.64,1004.89,2016.99,1097.30,1627.72,1667.68,499.62,483.45,33.82,0000 0000 0000 0000 000000
2014-08-03 09:57:24,0.34,10.09,0.00,27.35,31.61,33.84,9.48,56.67,1004.90,2016.98,1095.96,1626.20,1666.05,499.75,483.70,33.86,0000 0000 0000 0000 000000
2014-08-03 10:02:25,0.42,10.10,0.00,27.35,31.63,33.86,9.53,56.72,1004.89,2016.94,1094.57,1624.56,1664.37,500.18,483.92,33.90,0000 0000 0000 0000 000000
2014-08-03 10:07:26,0.36,10.12,0.00,27.36,31.65,33.88,9.47,56.71,1004.89,2016.67,1093.01,1622.73,1662.70,499.82,483.72,33.94,0000 0000 0000 0000 000000
2014-08-03 10:12:27,0.40,10.13,0.00,27.38,31.67,33.89,9.47,56.58,1004.87,2016.57,1091.61,1621.11,1661.10,500.43,484.32,33.99,0000 0000 0000 0000 000000
2014-08-03 10:17:28,0.31,10.15,0.00,27.42,31.69,33.91,9.45,56.68,1004.87,2016.25,1090.17,1619.54,1659.44,499.93,483.94,34.03,0000 0000 0000 0000 000000
2014-08-03 10:22:30,0.32,10.16,0.00,27.42,31.71,33.93,9.50,56.66,1004.64,2016.05,1088.86,1618.03,1657.81,500.00,483.69,34.07,0000 0000 0000 0000 000000
2014-08-03 10:27:31,0.37,10.18,0.00,27.44,31.72,33.94,9.43,56.63,1004.48,2016.01,1087.69,1616.70,1656.47,499.91,483.47,34.11,0000 0000 0000 0000 000000
2014-08-03 10:32:32,0.29,10.19,0.00,27.45,31.74,33.96,9.47,56.66,1004.72,2016.00,1086.69,1615.43,1655.10,499.65,483.34,34.15,0000 0000 0000 0000 000000
2014-08-03 10:37:33,0.34,10.20,0.00,27.47,31.76,33.97,9.54,56.81,1004.87,2016.00,1085.51,1614.07,1653.67,500.13,483.73,34.19,0000 0000 0000 0000 000000
2014-08-03 10:42:34,0.33,10.22,0.00,27.48,31.78,33.99,9.47,56.69,1004.87,2016.00,1084.50,1612.74,1652.26,499.73,483.44,34.24,0000 0000 0000 0000 000000
2014-08-03 10:47:35,0.24,10.23,0.00,27.51,31.80,34.00,9.54,56.80,1004.89,2016.00,1083.68,1611.60,1651.05,499.96,483.45,34.28,0000 0000 0000 0000 000000
2014-08-03 10:52:36,0.22,10.24,0.00,27.51,31.82,34.02,9.45,56.73,1004.90,2015.99,1082.83,1610.62,1650.05,500.15,483.86,34.32,0000 0000 0000 0000 000000
2014-08-03 10:57:37,0.22,10.25,0.00,27.53,31.83,34.04,9.49,56.79,1004.90,2015.97,1082.02,1609.70,1649.04,500.41,483.84,34.36,0000 0000 0000 0000 000000
2014-08-03 11:02:38,0.19,10.26,0.00,27.56,31.85,34.06,9.45,56.73,1004.89,2015.92,1081.21,1608.93,1648.11,499.85,483.40,34.40,0000 0000 0000 0000 000000
2014-08-03 11:07:40,0.21,10.26,0.00,27.57,31.86,34.09,9.48,56.63,1004.90,2015.83,1080.60,1608.10,1647.34,500.13,483.56,34.44,0000 0000 0000 0000 000000
2014-08-03 11:12:41,0.23,10.27,0.00,27.60,31.88,34.11,9.51,56.72,1004.90,2015.74,1079.57,1607.28,1646.37,500.35,483.90,34.49,0000 0000 0000 0000 000000
2014-08-03 11:17:42,0.13,10.28,0.00,27.60,31.90,34.13,9.50,56.75,1004.90,2015.18,1078.67,1606.26,1645.31,500.10,483.61,34.53,0000 0000 0000 0000 000000
2014-08-03 11:22:43,0.18,10.29,0.00,27.60,31.91,34.13,9.51,56.64,1004.91,2015.03,1077.96,1605.36,1644.36,499.67,483.14,34.57,0000 0000 0000 0000 000000
2014-08-03 11:27:44,0.22,10.30,0.00,27.61,31.92,34.14,9.49,56.68,1004.90,2015.01,1077.13,1604.59,1643.55,500.17,483.67,34.61,0000 0000 0000 0000 000000
2014-08-03 11:32:46,0.24,10.31,0.00,27.62,31.93,34.16,9.46,56.73,1004.90,2015.01,1076.17,1603.73,1642.56,499.83,483.35,34.65,0000 0000 0000 0000 000000
2014-08-03 11:37:47,0.11,10.32,0.00,27.63,31.95,34.19,9.44,56.74,1004.90,2015.00,1075.86,1602.99,1641.78,499.62,483.13,34.69,0000 0000 0000 0000 000000
2014-08-03 11:42:48,0.21,10.33,0.00,27.62,31.96,34.18,9.47,56.69,1004.90,2014.99,1075.08,1602.15,1640.96,500.25,483.53,34.74,0000 0000 0000 0000 000000
2014-08-03 11:47:50,0.13,10.33,0.00,27.65,31.97,34.21,9.46,56.79,1004.90,2014.96,1074.92,1601.48,1640.14,499.59,482.95,34.78,0000 0000 0000 0000 000000
2014-08-03 11:52:51,0.14,10.34,0.00,27.65,31.98,34.22,9.45,56.77,1004.90,2014.86,1074.22,1600.98,1639.68,499.74,483.17,34.82,0000 0000 0000 0000 000000
2014-08-03 11:57:53,0.08,10.34,0.00,27.66,32.00,34.24,9.41,56.92,1004.91,2014.69,1073.96,1600.26,1639.01,499.39,482.70,34.86,0000 0000 0000 0000 000000
2014-08-03 12:02:54,0.15,10.35,0.00,27.69,32.00,34.25,9.49,56.87,1004.90,2014.56,1073.20,1599.80,1638.28,500.04,483.36,34.90,0000 0000 0000 0000 000000
2014-08-03 12:07:55,0.05,10.35,0.00,27.71,32.02,34.25,9.49,56.69,1004.90,2014.08,1072.97,1599.05,1637.66,500.44,483.71,34.95,0000 0000 0000 0000 000000
2014-08-03 12:12:56,0.14,10.35,0.00,27.70,32.02,34.27,9.56,56.87,1004.90,2014.06,1072.32,1598.88,1637.03,500.08,483.30,34.99,0000 0000 0000 0000 000000
2014-08-03 12:17:57,0.14,10.36,0.00,27.70,32.04,34.28,9.56,56.81,1004.90,2014.16,1071.94,1598.10,1636.65,500.16,483.41,35.03,0000 0000 0000 0000 000000
2014-08-03 12:22:59,0.16,10.37,0.00,27.70,32.05,34.30,9.47,56.76,1004.90,2014.09,1071.17,1597.68,1635.99,499.96,482.96,35.07,0000 0000 0000 0000 000000
2014-08-03 12:28:00,0.09,10.37,0.00,27.72,32.05,34.30,9.52,56.74,1004.90,2014.01,1070.97,1597.01,1635.21,500.13,483.20,35.11,0000 0000 0000 0000 000000
2014-08-03 12:33:01,0.16,10.37,0.00,27.72,32.07,34.31,9.52,56.78,1004.90,2014.00,1070.49,1596.47,1634.88,499.73,482.89,35.15,0000 0000 0000 0000 000000
2014-08-03 12:38:02,0.09,10.38,0.00,27.70,32.07,34.32,9.50,56.73,1004.90,2014.00,1070.01,1596.00,1634.11,499.62,482.92,35.20,0000 0000 0000 0000 000000
2014-08-03 12:43:03,0.14,10.39,0.00,27.70,32.08,34.34,9.47,56.68,1004.90,2014.00,1069.90,1595.34,1633.57,499.70,483.00,35.24,0000 0000 0000 0000 000000
2014-08-03 12:48:04,0.12,10.39,0.00,27.70,32.10,34.34,9.46,56.77,1004.90,2014.00,1069.22,1594.99,1633.02,500.06,483.32,35.28,0000 0000 0000 0000 000000
2014-08-03 12:53:06,0.18,10.40,0.00,27.71,32.10,34.35,9.45,56.60,1004.90,2014.00,1068.79,1594.36,1632.58,499.79,483.25,35.32,0000 0000 0000 0000 000000
2014-08-03 12:58:07,0.13,10.41,0.00,27.72,32.11,34.36,9.46,56.66,1004.89,2014.00,1067.95,1593.89,1631.97,500.07,483.36,35.36,0000 0000 0000 0000 000000